Find Starlink 36551

NORAD ID: 67493 Int'l Des: 2026-012 Owner: SPXS Country: US Constellation: starlink operational
LEOCIRCULAR

Aktuelle Ansicht

3D-Globus wird geladen...

Über Starlink 36551

Beschreibung wird geladen...

Nächste Überflüge

Passes for default location (London). Set your location on the main map for personalized predictions.

Höhenverlauf

Loading altitude history...

Zweizeiliger Elementsatz

1 67493U 26012A 26145.95084114 .00012436 00000-0 46053-3 0 9997
2 67493 43.0031 238.4494 0001180 286.8554 73.2168 15.27590003 19575
Epoch: 25. Mai 2026 • Age: 20 hours

Aktueller Status

Höhe 483.6 km
Geschwindigkeit 7.62 km/s
Subsatellitenpunkt -4.09°S, 103.05°W
Startdatum 18. Jan. 2026
Alter 0.3 years
Typ internet

Technische Details

Klassifizierung Payload
Masse 575.00 kg
Trockenmasse 530.00 kg
Gesamtmasse 575.00 kg
Länge 0.30 m
Durchmesser 4.10 m
Spannweite 29.00 m
Form Box + pan
Hersteller SPXS
Bus-Typ Starlink V2MO
Phasenstatus In Orbit
Besitzer/Staat SPXS/US

Most Searched